[[{"header":{"parameterUnit":"m.s-1","parameterCategory":2,"la1":30.2991,"la2":30.254,"lo1":-89.0895,"lo2":-89.0444,"dy":0.0017,"dx":0.0017,"nx":28,"ny":28,"refTime":"2024-02-03T03:00:00:Z","depth":"0","parameterNumber":2,"parameterNumberName":"U-component_of_CURRENTS"},"data":[0,0,0,0,0,0,0,0,0,0,0,0,0,0,0,0,0,0,0,0,0,0,0,0,0,0,0,0,0,0,0,0,0,0,0,0,0,0,0,0,0,0,0,0,0,0,0,0,0,0,0,0,0,0,0,0,0,0,-0.3683,-0.3684,0,-0.3702,-0.3701,-0.3701,-0.366,-0.3659,-0.3658,-0.3658,-0.3654,-0.3655,-0.3655,0,0,0,0,0,0,0,0,0,0,0,0,0,-0.3457,-0.3462,-0.3683,-0.3684,-0.3685,-0.3702,-0.3701,-0.3701,-0.366,-0.3659,-0.3658,-0.3657,-0.3654,-0.3654,-0.3655,0,0,0,0,0,0,0,0,0,0,0,0,0,-0.3517,-0.3463,-0.3683,-0.3671,-0.3671,-0.3702,-0.3701,-0.3701,-0.366,-0.3659,-0.3658,-0.3657,-0.3654,-0.3654,-0.3655,-0.3683,0,0,-0.3658,-0.3658,0,0,0,0,0,0,0,0,-0.3514,-0.3525,-0.3672,-0.3672,-0.3672,-0.3683,-0.362,-0.3696,-0.366,-0.3657,-0.3658,-0.3656,-0.3667,-0.3666,-0.3663,-0.3683,-0.3683,-0.3658,-0.3659,-0.3659,-0.3659,0,0,0,0,0,0,0,-0.351,-0.3523,-0.3684,-0.3673,-0.3673,-0.3612,-0.362,-0.3633,-0.3663,-0.3657,-0.3656,-0.3669,-0.3665,-0.3663,-0.3663,-0.3683,-0.3658,-0.3659,-0.3659,-0.366,-0.3714,-0.3715,0,0,0,0,0,0,-0.3532,-0.3521,-0.3683,-0.3685,-0.3596,-0.3618,-0.3627,-0.3675,-0.3663,-0.3662,-0.367,-0.3667,-0.3662,-0.3662,-0.3663,-0.3695,-0.3659,-0.366,-0.366,-0.3713,-0.3714,-0.3715,0,0,0,0,0,0,-0.3527,-0.3547,-0.3683,-0.3605,-0.3619,-0.3625,-0.3678,-0.3676,-0.3678,-0.3674,-0.3671,-0.3675,-0.3661,-0.3662,-0.3685,-0.3694,-0.366,-0.3661,-0.3712,-0.3713,-0.3714,-0.3759,0,0,0,0,0,0,-0.3521,-0.3547,-0.3584,-0.3609,-0.3625,-0.3712,-0.368,-0.3678,-0.3691,-0.3687,-0.3678,-0.3676,-0.366,-0.3684,-0.3686,-0.3695,-0.3662,-0.3711,-0.3712,-0.3714,-0.3757,-0.3762,-0.3766,0,0,0,0,0,-0.3514,-0.3583,-0.3587,-0.3606,-0.368,-0.3715,-0.3716,-0.3709,-0.3693,-0.3704,-0.3697,-0.3676,-0.3695,-0.3686,-0.3688,-0.3697,-0.371,-0.3712,-0.3714,-0.3754,-0.3761,-0.3766,0,0,0,0,0,0,-0.3523,-0.3587,-0.3591,-0.3683,-0.3698,-0.371,-0.3731,-0.372,-0.3723,-0.3723,-0.3699,-0.3698,-0.3702,-0.3709,-0.3699,-0.3717,-0.3695,-0.3698,-0.3725,-0.3731,-0.3736,-0.376,-0.3662,0,0,0,0,0,-0.3542,-0.3601,-0.364,-0.3709,-0.3723,-0.3724,-0.3737,-0.3736,-0.3745,-0.3744,-0.3732,-0.3725,-0.3713,-0.3731,-0.3714,-0.3755,-0.3701,-0.3759,-0.3764,-0.3768,-0.3789,-0.3719,-0.3719,-0.3722,-0.3722,-0.3722,0,0,-0.3565,-0.3609,-0.3643,-0.3712,-0.3723,-0.3758,-0.3728,-0.3764,-0.3787,-0.3747,-0.3769,-0.3731,-0.372,-0.3734,-0.3741,-0.3749,-0.3731,-0.377,-0.3774,-0.3794,-0.3721,-0.372,-0.372,-0.3723,-0.3723,-0.3722,0,0,-0.3617,-0.368,-0.3725,-0.3749,-0.3784,-0.3795,-0.3809,-0.3823,-0.3823,-0.3839,-0.3801,-0.3787,-0.3783,-0.3779,-0.3775,-0.381,-0.3735,-0.3797,-0.3874,-0.3805,-0.3803,-0.3802,-0.3692,-0.3681,-0.3829,-0.3829,-0.3829,0,-0.364,-0.371,-0.374,-0.3781,-0.3808,-0.3815,-0.3853,-0.387,-0.3883,-0.3886,-0.3852,-0.3819,-0.3802,-0.3827,-0.3833,-0.3821,-0.3753,-0.385,-0.3809,-0.3807,-0.3805,-0.3693,-0.368,-0.3832,-0.3831,-0.3831,-0.3831,0,-0.3702,-0.376,-0.3794,-0.3851,-0.3882,-0.3925,-0.3954,-0.3978,-0.3965,-0.3955,-0.3945,-0.3913,-0.3891,-0.3882,-0.3871,-0.3865,-0.3806,-0.3795,-0.379,-0.3807,-0.3688,-0.3673,-0.3835,-0.3834,-0.3834,-0.3833,0,0,-0.3737,-0.3821,-0.3829,-0.3845,-0.3922,-0.3943,-0.4015,-0.4052,-0.4054,-0.4057,-0.4032,-0.4036,-0.399,-0.3985,-0.396,-0.3934,-0.3838,-0.3876,-0.3871,-0.3761,-0.3643,-0.3526,-0.3497,-0.381,-0.3808,-0.3808,-0.355,0,-0.3764,-0.3847,-0.3885,-0.3942,-0.3979,-0.4022,-0.4066,-0.4103,-0.4097,-0.4072,-0.4066,-0.402,-0.4041,-0.3997,-0.3984,-0.3857,-0.3808,-0.3907,-0.3651,-0.3643,-0.3533,-0.3481,-0.3373,-0.3129,-0.3535,-0.3533,-0.3531,0,-0.3786,-0.384,-0.3909,-0.3962,-0.3978,-0.4012,-0.4058,-0.4091,-0.4104,-0.4089,-0.4089,-0.4043,-0.4028,-0.4001,-0.3868,-0.3922,-0.3797,-0.3709,-0.3696,-0.3571,-0.3501,-0.3188,-0.3086,-0.3062,-0.3507,-0.3509,-0.3511,0,-0.3752,-0.384,-0.3889,-0.3916,-0.3991,-0.4016,-0.4047,-0.4086,-0.4065,-0.408,-0.4024,-0.4031,-0.3944,-0.3871,-0.3723,-0.3773,-0.3509,-0.3542,-0.3325,-0.3312,-0.3166,-0.3144,-0.3011,-0.3421,-0.3421,-0.3422,-0.3423,0,-0.376,-0.3781,-0.3867,-0.389,-0.3892,-0.3972,-0.3951,-0.3996,-0.3991,-0.3909,-0.4003,-0.3902,-0.3899,-0.3758,-0.3675,-0.3432,-0.3463,-0.3315,-0.3241,-0.3174,-0.3156,-0.3087,-0.3132,-0.3412,-0.3414,-0.3416,-0.3418,0,-0.3694,-0.3766,-0.3786,-0.3866,-0.3868,-0.3859,-0.3851,-0.3817,-0.3871,-0.3757,-0.3749,-0.3742,-0.359,-0.355,-0.3356,-0.33,-0.3052,-0.3024,-0.2931,-0.2853,-0.2682,-0.2734,-0.2518,-0.245,-0.2762,-0.2758,-0.2754,0,-0.3665,-0.3685,-0.3726,-0.369,-0.3708,-0.3699,-0.3664,-0.3728,-0.3672,-0.3612,-0.3517,-0.341,-0.3276,-0.3017,-0.2925,-0.276,-0.2794,-0.2549,-0.2659,-0.2636,-0.264,-0.269,-0.2655,-0.2454,-0.2448,-0.2443,-0.2439,0,-0.3559,-0.3573,-0.3571,-0.3527,-0.3479,-0.3427,-0.3391,-0.3336,-0.3355,-0.3291,-0.3137,-0.3043,-0.2858,-0.2662,-0.2508,-0.2411,-0.2511,-0.2443,-0.2442,-0.2407,-0.2428,-0.2337,-0.2647,-0.2397,-0.2401,-0.2404,-0.2406,-0.2408,-0.3408,-0.3369,-0.3349,-0.3264,-0.3224,-0.3118,-0.3001,-0.2984,-0.2864,-0.2717,-0.2742,-0.2578,-0.2483,-0.228,-0.2171,-0.2024,-0.2143,-0.1998,-0.2058,-0.2107,-0.2071,-0.2274,-0.1945,-0.1946,-0.1947,-0.1949,-0.195,0,-0.3163,-0.3121,-0.3069,-0.2945,-0.2815,-0.2877,-0.2754,-0.2616,-0.2419,-0.2392,-0.2264,-0.2152,-0.1968,-0.1921,-0.1793,-0.1695,-0.1699,-0.1662,-0.1741,-0.1721,-0.1885,-0.1906,-0.1526,-0.1526,-0.1526,-0.1526,-0.1526,-0.1526,-0.3005,-0.2855,-0.2828,-0.2525,-0.2457,-0.221,-0.2098,-0.1986,-0.1929,-0.177,-0.1731,-0.1757,-0.1741,-0.1798,-0.1641,-0.1551,-0.1551,-0.1475,-0.1523,-0.1701,-0.174,-0.1777,-0.1807,-0.1412,-0.1412,-0.1304,-0.1303,-0.1303]},{"header":{"parameterUnit":"m.s-1","parameterCategory":2,"la1":30.2991,"la2":30.254,"lo1":-89.0895,"lo2":-89.0444,"dy":0.0017,"dx":0.0017,"nx":28,"ny":28,"refTime":"2024-02-03T03:00:00:Z","depth":"0","parameterNumber":3,"parameterNumberName":"V-component_of_CURRENTS"},"data":[0,0,0,0,0,0,0,0,0,0,0,0,0,0,0,0,0,0,0,0,0,0,0,0,0,0,0,0,0,0,0,0,0,0,0,0,0,0,0,0,0,0,0,0,0,0,0,0,0,0,0,0,0,0,0,0,0,0,-0.0335,-0.0333,0,-0.0152,-0.015,-0.0148,-0.006,-0.006,-0.0061,-0.0061,0.0211,0.0218,0.0226,0,0,0,0,0,0,0,0,0,0,0,0,0,-0.0487,-0.0485,-0.0335,-0.0333,-0.0331,-0.0153,-0.015,-0.0147,-0.006,-0.006,-0.0061,-0.0061,0.0208,0.0217,0.0226,0,0,0,0,0,0,0,0,0,0,0,0,0,-0.0372,-0.0484,-0.0335,-0.0269,-0.0261,-0.0153,-0.015,-0.0146,-0.006,-0.006,-0.0061,-0.0061,0.0205,0.0216,0.0228,0.0309,0,0,0.0262,0.0267,0,0,0,0,0,0,0,0,-0.0378,-0.0366,-0.028,-0.0273,-0.0264,-0.0132,-0.0104,0.0009,-0.006,-0.0133,-0.0061,-0.0062,0.0103,0.0122,0.0161,0.0322,0.0333,0.0263,0.027,0.0275,0.0278,0,0,0,0,0,0,0,-0.0387,-0.0372,-0.0259,-0.0278,-0.0269,-0.0206,-0.0191,-0.0082,-0.001,-0.0126,-0.012,-0.0105,0.0108,0.015,0.0169,0.0337,0.0263,0.0273,0.028,0.0285,0.0681,0.0684,0,0,0,0,0,0,-0.0421,-0.038,-0.0265,-0.0254,-0.0328,-0.0204,-0.0187,-0.0171,-0.0013,0.0009,-0.0105,-0.0102,0.0131,0.0155,0.0179,0.036,0.0275,0.0286,0.0292,0.0677,0.0682,0.0686,0,0,0,0,0,0,-0.0425,-0.0413,-0.0273,-0.0316,-0.0294,-0.0202,-0.0184,-0.0168,-0.0125,0.0002,0.0026,-0.008,0.0132,0.0163,0.0298,0.0368,0.0291,0.0301,0.0673,0.0679,0.0684,0.0675,0,0,0,0,0,0,-0.043,-0.0415,-0.0414,-0.0318,-0.0293,-0.0194,-0.0184,-0.0164,-0.0116,-0.011,0.0032,0.0056,0.0134,0.0281,0.031,0.0383,0.031,0.0668,0.0675,0.0682,0.0671,0.068,0.0687,0,0,0,0,0,-0.0436,-0.0425,-0.0415,-0.0401,-0.0296,-0.0192,-0.0172,-0.0106,-0.0115,-0.0075,0.0018,0.0052,0.0346,0.0293,0.0326,0.0403,0.0665,0.0673,0.0681,0.0667,0.0678,0.0687,0,0,0,0,0,0,-0.0481,-0.0413,-0.04,-0.0368,-0.0285,-0.0179,-0.0144,-0.0111,-0.0009,-0.0004,0.0094,0.0129,0.0273,0.0343,0.0281,0.0542,0.0514,0.0529,0.0492,0.0503,0.0511,0.0458,0.032,0,0,0,0,0,-0.0497,-0.0478,-0.0389,-0.0362,-0.0326,-0.0242,-0.0198,-0.0147,-0.005,-0.0009,0.0089,0.0207,0.0336,0.0416,0.053,0.0672,0.0656,0.0748,0.0757,0.0763,0.0746,0.0768,0.0774,0.0713,0.0713,0.0713,0,0,-0.0511,-0.047,-0.046,-0.0372,-0.0309,-0.0232,-0.0214,-0.0137,-0.0062,0.0009,0.0137,0.0232,0.0376,0.0535,0.0609,0.0603,0.0774,0.0773,0.0777,0.0756,0.0777,0.0782,0.0787,0.0719,0.0718,0.0717,0,0,-0.0517,-0.0487,-0.0469,-0.0396,-0.0303,-0.0231,-0.0215,-0.01,-0.0038,0.0093,0.0168,0.0294,0.0486,0.0609,0.0694,0.082,0.0803,0.0869,0.0888,0.0911,0.0913,0.0916,0.0885,0.0884,0.0889,0.0889,0.0889,0,-0.0534,-0.0509,-0.0441,-0.0385,-0.0342,-0.0236,-0.0191,-0.008,0.0067,0.0116,0.0136,0.04,0.0525,0.0713,0.0773,0.0837,0.0811,0.083,0.0913,0.0915,0.0918,0.0885,0.0885,0.0889,0.0889,0.0889,0.0889,0,-0.0513,-0.0489,-0.0463,-0.037,-0.0297,-0.0238,-0.0096,-0.0003,0.0067,0.016,0.0325,0.0487,0.0626,0.0721,0.0797,0.0914,0.0874,0.0897,0.0863,0.0921,0.0886,0.0885,0.089,0.089,0.089,0.089,0,0,-0.0569,-0.0479,-0.0473,-0.0462,-0.0301,-0.025,-0.0099,0.0037,0.0091,0.0271,0.0327,0.0606,0.0644,0.0742,0.0856,0.0921,0.0942,0.0918,0.0919,0.0843,0.093,0.0922,0.0919,0.0955,0.0956,0.0957,0.0888,0,-0.0585,-0.0551,-0.0473,-0.0417,-0.0393,-0.0251,-0.0138,0.0012,0.0135,0.0235,0.0425,0.0535,0.0673,0.0713,0.0813,0.09,0.0942,0.0954,0.0924,0.0922,0.0872,0.0921,0.0967,0.0912,0.0888,0.0887,0.0887,0,-0.0603,-0.0584,-0.0573,-0.0506,-0.0481,-0.0414,-0.0283,-0.0166,0.0044,0.0131,0.0289,0.0407,0.0587,0.0645,0.0822,0.0808,0.0863,0.0926,0.0924,0.0914,0.0914,0.0861,0.0912,0.1074,0.0886,0.0886,0.0886,0,-0.0734,-0.0663,-0.069,-0.0654,-0.0527,-0.0499,-0.0419,-0.0221,-0.0138,0.0033,0.0081,0.0299,0.0375,0.0506,0.0698,0.0729,0.0815,0.0868,0.0909,0.0905,0.094,0.0939,0.1108,0.0938,0.0938,0.0938,0.0938,0,-0.0804,-0.0821,-0.077,-0.0772,-0.0782,-0.0652,-0.0615,-0.0485,-0.0331,-0.0239,-0.0018,0.0076,0.0337,0.0457,0.0611,0.0754,0.0745,0.0899,0.0899,0.094,0.0941,0.108,0.1143,0.0935,0.0936,0.0936,0.0937,0,-0.0938,-0.0907,-0.0933,-0.0865,-0.0849,-0.0862,-0.0746,-0.0689,-0.0544,-0.0434,-0.0393,-0.0123,0.0049,0.028,0.0473,0.0626,0.0847,0.08,0.0809,0.0814,0.1026,0.1086,0.1178,0.1272,0.083,0.083,0.0829,0,-0.1005,-0.1039,-0.1033,-0.1043,-0.1022,-0.1007,-0.096,-0.0811,-0.073,-0.0528,-0.0482,-0.0303,-0.0114,0.0151,0.0432,0.0646,0.0807,0.079,0.0903,0.104,0.1107,0.1148,0.1225,0.0931,0.0932,0.0932,0.0932,0,-0.1111,-0.1125,-0.1138,-0.1166,-0.1163,-0.1139,-0.1071,-0.1044,-0.0846,-0.0757,-0.0602,-0.0471,-0.0157,0.0162,0.0445,0.0596,0.0915,0.0803,0.097,0.1219,0.125,0.1338,0.0931,0.0936,0.0936,0.0935,0.0935,0.0935,-0.1183,-0.1228,-0.1238,-0.1258,-0.1254,-0.122,-0.1193,-0.1108,-0.1021,-0.0823,-0.071,-0.0471,-0.0009,0.0434,0.0595,0.097,0.0949,0.1119,0.1175,0.12,0.1327,0.0897,0.0897,0.0897,0.0896,0.0896,0.0896,0,-0.1223,-0.1256,-0.1297,-0.1302,-0.129,-0.127,-0.1201,-0.1138,-0.1047,-0.0859,-0.0703,-0.0192,0.0235,0.0656,0.1173,0.1367,0.1445,0.1453,0.157,0.1632,0.1279,0.1327,0.1393,0.1393,0.1393,0.1393,0.1393,0.1393,-0.1239,-0.1284,-0.1299,-0.1297,-0.1294,-0.1246,-0.1205,-0.1132,-0.0984,-0.0678,-0.0375,-0.0122,0.0468,0.1266,0.1733,0.1764,0.1966,0.1901,0.2002,0.1818,0.1794,0.177,0.1837,0.2009,0.2009,0.2378,0.2382,0.2384]}],[{"header":{"parameterUnit":"m.s-1","parameterCategory":2,"la1":30.2991,"la2":30.254,"lo1":-89.0895,"lo2":-89.0444,"dy":0.0017,"dx":0.0017,"nx":28,"ny":28,"refTime":"2024-02-03T03:00:00:Z","depth":"2","parameterNumber":2,"parameterNumberName":"U-component_of_CURRENTS"},"data":[0,0,0,0,0,0,0,0,0,0,0,0,0,0,0,0,0,0,0,0,0,0,0,0,0,0,0,0,0,0,0,0,0,0,0,0,0,0,0,0,0,0,0,0,0,0,0,0,0,0,0,0,0,0,0,0,0,0,-0.2785,-0.2785,0,-0.2847,-0.2848,-0.2848,-0.2863,-0.2862,-0.2862,-0.2862,-0.2931,-0.2933,-0.2936,0,0,0,0,0,0,0,0,0,0,0,0,0,-0.2682,-0.2683,-0.2785,-0.2786,-0.2786,-0.2847,-0.2848,-0.2848,-0.2863,-0.2862,-0.2862,-0.2862,-0.2931,-0.2933,-0.2936,0,0,0,0,0,0,0,0,0,0,0,0,0,-0.2732,-0.2684,-0.2785,-0.2802,-0.2804,-0.2847,-0.2848,-0.2849,-0.2863,-0.2862,-0.2862,-0.2861,-0.293,-0.2933,-0.2936,-0.2966,0,0,-0.2946,-0.2947,0,0,0,0,0,0,0,0,-0.273,-0.2736,-0.2798,-0.2801,-0.2803,-0.2847,-0.2837,-0.2889,-0.2863,-0.2839,-0.2862,-0.2861,-0.2905,-0.291,-0.2921,-0.2969,-0.2972,-0.2946,-0.2948,-0.295,-0.2951,0,0,0,0,0,0,0,-0.2726,-0.2734,-0.2808,-0.2799,-0.2802,-0.2807,-0.2814,-0.2847,-0.2874,-0.2841,-0.2843,-0.2852,-0.2906,-0.2918,-0.2923,-0.2973,-0.2946,-0.2949,-0.2951,-0.2952,-0.307,-0.3071,0,0,0,0,0,0,-0.2721,-0.273,-0.2806,-0.281,-0.2765,-0.281,-0.2817,-0.2833,-0.2873,-0.2879,-0.2852,-0.2852,-0.2913,-0.2919,-0.2926,-0.3005,-0.295,-0.2953,-0.2955,-0.3068,-0.307,-0.3071,0,0,0,0,0,0,-0.2719,-0.2728,-0.2804,-0.2772,-0.2782,-0.2812,-0.283,-0.2834,-0.2862,-0.2881,-0.2887,-0.2876,-0.2913,-0.2921,-0.2971,-0.3006,-0.2954,-0.2957,-0.3067,-0.3069,-0.3071,-0.3137,0,0,0,0,0,0,-0.2716,-0.2727,-0.2738,-0.2772,-0.2784,-0.2842,-0.2831,-0.2836,-0.2867,-0.2868,-0.2904,-0.2909,-0.2913,-0.2966,-0.2974,-0.301,-0.296,-0.3066,-0.3068,-0.307,-0.3133,-0.3141,-0.3147,0,0,0,0,0,-0.2712,-0.2737,-0.2738,-0.2748,-0.2798,-0.2843,-0.2851,-0.2868,-0.2869,-0.2889,-0.2913,-0.2908,-0.2985,-0.2971,-0.298,-0.3017,-0.3065,-0.3067,-0.307,-0.313,-0.3139,-0.3147,0,0,0,0,0,0,-0.2706,-0.2742,-0.2744,-0.278,-0.2812,-0.2846,-0.2872,-0.2881,-0.2916,-0.2927,-0.2933,-0.294,-0.2984,-0.2996,-0.2979,-0.3054,-0.3021,-0.3026,-0.3064,-0.3073,-0.3079,-0.3098,-0.2962,0,0,0,0,0,-0.2708,-0.2733,-0.2767,-0.2797,-0.2817,-0.2846,-0.2867,-0.2887,-0.292,-0.2935,-0.2945,-0.297,-0.3001,-0.3034,-0.3045,-0.3108,-0.3064,-0.3133,-0.314,-0.3146,-0.3166,-0.312,-0.3124,-0.308,-0.308,-0.308,0,0,-0.2708,-0.2737,-0.2747,-0.2797,-0.2825,-0.2857,-0.2859,-0.291,-0.2942,-0.2939,-0.2979,-0.2987,-0.3015,-0.3067,-0.309,-0.3089,-0.3129,-0.3149,-0.3155,-0.3172,-0.3123,-0.3127,-0.313,-0.3082,-0.3081,-0.3081,0,0,-0.2718,-0.2757,-0.2771,-0.2809,-0.2861,-0.2887,-0.2904,-0.2943,-0.2969,-0.3012,-0.3013,-0.3049,-0.3086,-0.312,-0.3144,-0.3203,-0.3148,-0.3204,-0.3285,-0.3239,-0.3242,-0.3244,-0.3162,-0.3157,-0.3231,-0.3231,-0.3232,0,-0.2719,-0.2755,-0.2784,-0.2817,-0.2856,-0.29,-0.2935,-0.2975,-0.3018,-0.305,-0.3031,-0.3081,-0.3112,-0.3188,-0.3225,-0.3221,-0.3169,-0.3252,-0.3247,-0.3249,-0.325,-0.3165,-0.3158,-0.3235,-0.3235,-0.3234,-0.3234,0,-0.2734,-0.2775,-0.2803,-0.2852,-0.2886,-0.295,-0.2998,-0.3037,-0.3064,-0.3095,-0.3148,-0.317,-0.3215,-0.3225,-0.3264,-0.3309,-0.3257,-0.3238,-0.3224,-0.3258,-0.3167,-0.3158,-0.324,-0.3239,-0.3238,-0.3237,0,0,-0.2692,-0.2797,-0.2793,-0.2836,-0.293,-0.2955,-0.3028,-0.3105,-0.3151,-0.318,-0.3208,-0.3298,-0.3316,-0.3346,-0.3371,-0.3363,-0.3338,-0.3336,-0.3332,-0.3252,-0.3204,-0.3064,-0.304,-0.3314,-0.3314,-0.3314,-0.3125,0,-0.2701,-0.2763,-0.2812,-0.2879,-0.293,-0.3009,-0.3066,-0.3137,-0.3191,-0.3223,-0.3272,-0.3303,-0.3364,-0.3381,-0.34,-0.3342,-0.3325,-0.3389,-0.3188,-0.3182,-0.305,-0.303,-0.2867,-0.2678,-0.3117,-0.3115,-0.3114,0,-0.2684,-0.2736,-0.2805,-0.2919,-0.2944,-0.2992,-0.3093,-0.3149,-0.3237,-0.3274,-0.3337,-0.3353,-0.3406,-0.3399,-0.3358,-0.3393,-0.3336,-0.3267,-0.3257,-0.3104,-0.3027,-0.2722,-0.2645,-0.3099,-0.31,-0.3101,-0.3102,0,-0.2613,-0.2727,-0.2789,-0.2833,-0.2957,-0.3007,-0.3068,-0.3168,-0.3204,-0.3295,-0.3291,-0.337,-0.3338,-0.332,-0.3259,-0.3308,-0.3114,-0.3147,-0.2952,-0.2939,-0.2752,-0.2723,-0.3086,-0.3086,-0.3086,-0.3087,-0.3087,0,-0.2608,-0.2648,-0.2775,-0.28,-0.2869,-0.297,-0.3038,-0.3113,-0.3186,-0.3175,-0.3315,-0.326,-0.3312,-0.3225,-0.321,-0.3033,-0.308,-0.2951,-0.2884,-0.2766,-0.2742,-0.3084,-0.3087,-0.308,-0.3081,-0.3083,-0.3084,0,-0.2521,-0.261,-0.2685,-0.2811,-0.2838,-0.2883,-0.2978,-0.3006,-0.3113,-0.3078,-0.3089,-0.3139,-0.3046,-0.3043,-0.2933,-0.2904,-0.2781,-0.2699,-0.2542,-0.2462,-0.2655,-0.2663,-0.2491,-0.2484,-0.2479,-0.2474,-0.247,0,-0.2492,-0.2526,-0.2634,-0.2649,-0.2712,-0.2788,-0.2805,-0.2937,-0.2931,-0.2953,-0.2875,-0.2835,-0.276,-0.2582,-0.2521,-0.2426,-0.2551,-0.2191,-0.2285,-0.2643,-0.2596,-0.2613,-0.2628,-0.2046,-0.2039,-0.2034,-0.2029,0,-0.2416,-0.2463,-0.2488,-0.2513,-0.2544,-0.2578,-0.2607,-0.2587,-0.2668,-0.2664,-0.2565,-0.2521,-0.2392,-0.222,-0.2115,-0.205,-0.222,-0.2069,-0.244,-0.2234,-0.2212,-0.217,-0.2202,-0.1978,-0.1983,-0.1987,-0.1989,-0.1992,-0.2318,-0.2316,-0.2324,-0.234,-0.2364,-0.2322,-0.2275,-0.2291,-0.2246,-0.2174,-0.2207,-0.21,-0.2083,-0.186,-0.1735,-0.1667,-0.1848,-0.18,-0.1822,-0.185,-0.1845,-0.1816,-0.1503,-0.1505,-0.1507,-0.1509,-0.1511,0,-0.2143,-0.2141,-0.2139,-0.2109,-0.2045,-0.2136,-0.2081,-0.2005,-0.1885,-0.1867,-0.1813,-0.1613,-0.1498,-0.1497,-0.1325,-0.1286,-0.1338,-0.1227,-0.1317,-0.1367,-0.1411,-0.139,-0.0924,-0.0922,-0.092,-0.0919,0,0,-0.204,-0.1936,-0.193,-0.1772,-0.1767,-0.1633,-0.1576,-0.151,-0.1475,-0.1359,-0.1317,-0.1424,-0.1453,-0.1194,-0.1131,-0.0996,-0.1176,-0.0944,-0.1415,-0.1571,-0.1614,-0.1738,-0.1759,0,0,0,0,0]},{"header":{"parameterUnit":"m.s-1","parameterCategory":2,"la1":30.2991,"la2":30.254,"lo1":-89.0895,"lo2":-89.0444,"dy":0.0017,"dx":0.0017,"nx":28,"ny":28,"refTime":"2024-02-03T03:00:00:Z","depth":"2","parameterNumber":3,"parameterNumberName":"V-component_of_CURRENTS"},"data":[0,0,0,0,0,0,0,0,0,0,0,0,0,0,0,0,0,0,0,0,0,0,0,0,0,0,0,0,0,0,0,0,0,0,0,0,0,0,0,0,0,0,0,0,0,0,0,0,0,0,0,0,0,0,0,0,0,0,-0.0561,-0.056,0,-0.0456,-0.0455,-0.0453,-0.036,-0.0359,-0.0359,-0.0358,-0.0135,-0.013,-0.0124,0,0,0,0,0,0,0,0,0,0,0,0,0,-0.0589,-0.0589,-0.0561,-0.056,-0.0559,-0.0457,-0.0455,-0.0453,-0.036,-0.0359,-0.0359,-0.0358,-0.0136,-0.013,-0.0124,0,0,0,0,0,0,0,0,0,0,0,0,0,-0.0536,-0.059,-0.0561,-0.0504,-0.0498,-0.0457,-0.0455,-0.0452,-0.036,-0.0359,-0.0358,-0.0357,-0.0139,-0.0131,-0.0123,-0.0093,0,0,-0.0098,-0.0095,0,0,0,0,0,0,0,0,-0.0539,-0.0534,-0.0513,-0.0508,-0.0502,-0.0424,-0.0383,-0.0328,-0.0361,-0.0408,-0.0358,-0.0357,-0.0224,-0.0209,-0.0187,-0.0083,-0.0073,-0.0098,-0.0093,-0.0089,-0.0087,0,0,0,0,0,0,0,-0.0543,-0.0538,-0.0515,-0.0513,-0.0505,-0.0453,-0.0445,-0.0372,-0.0317,-0.0403,-0.0398,-0.0394,-0.0219,-0.0195,-0.018,-0.007,-0.0098,-0.0091,-0.0086,-0.0083,0.0137,0.0138,0,0,0,0,0,0,-0.0572,-0.0542,-0.0518,-0.0512,-0.0524,-0.0454,-0.0444,-0.0446,-0.032,-0.0302,-0.0395,-0.039,-0.0209,-0.019,-0.0172,-0.0081,-0.0089,-0.0082,-0.0077,0.0136,0.0137,0.0139,0,0,0,0,0,0,-0.0573,-0.0571,-0.0522,-0.0528,-0.0519,-0.0456,-0.0458,-0.0445,-0.0417,-0.0316,-0.0294,-0.0382,-0.0207,-0.0183,-0.0106,-0.0073,-0.0078,-0.0071,0.0135,0.0137,0.0138,0.0072,0,0,0,0,0,0,-0.0574,-0.0572,-0.0585,-0.053,-0.052,-0.0503,-0.0459,-0.0444,-0.0419,-0.0412,-0.0297,-0.0276,-0.0205,-0.0119,-0.0098,-0.0062,-0.0065,0.0134,0.0136,0.0137,0.0073,0.0071,0.007,0,0,0,0,0,-0.0576,-0.0598,-0.0586,-0.0583,-0.0539,-0.0505,-0.0494,-0.0441,-0.042,-0.0412,-0.0334,-0.0279,-0.0091,-0.0112,-0.0088,-0.0049,0.0133,0.0135,0.0137,0.0074,0.0071,0.007,0,0,0,0,0,0,-0.0616,-0.059,-0.0575,-0.0589,-0.0554,-0.0491,-0.0482,-0.045,-0.0384,-0.037,-0.0275,-0.0248,-0.0162,-0.0104,-0.013,0.0021,0.0034,0.0041,-0.0022,-0.0024,-0.0025,-0.0033,-0.0058,0,0,0,0,0,-0.0636,-0.0647,-0.0604,-0.0617,-0.0601,-0.0544,-0.0525,-0.0489,-0.0427,-0.0397,-0.0322,-0.0228,-0.0134,-0.0083,-0.0,0.0072,0.0117,0.0117,0.0116,0.0114,0.0124,0.0206,0.0212,0.0146,0.0146,0.0146,0,0,-0.0658,-0.0645,-0.0652,-0.0627,-0.0592,-0.0576,-0.0528,-0.0502,-0.0474,-0.0382,-0.0321,-0.0236,-0.0119,-0.0031,0.0014,0.0023,0.0151,0.0117,0.0114,0.0126,0.0209,0.0215,0.022,0.0148,0.0147,0.0147,0,0,-0.0702,-0.0691,-0.0709,-0.0678,-0.0638,-0.0605,-0.0603,-0.0541,-0.0495,-0.0435,-0.0347,-0.0254,-0.0133,-0.0033,0.0033,0.007,0.0135,0.0103,0.0098,0.0175,0.0181,0.0187,0.0221,0.0231,0.0107,0.0107,0.0107,0,-0.0728,-0.074,-0.0708,-0.07,-0.0683,-0.0624,-0.0623,-0.0568,-0.0488,-0.044,-0.0424,-0.0221,-0.0128,0.0008,0.0033,0.0069,0.0107,0.0091,0.0171,0.0178,0.0185,0.022,0.0231,0.0104,0.0105,0.0105,0.0105,0,-0.077,-0.0772,-0.0774,-0.0753,-0.0733,-0.0718,-0.065,-0.0611,-0.056,-0.0491,-0.0364,-0.0243,-0.0105,-0.0066,0.0004,0.0118,0.0124,0.0151,0.0168,0.0187,0.0222,0.0235,0.01,0.0101,0.0102,0.0103,0,0,-0.083,-0.0812,-0.0808,-0.0807,-0.0754,-0.0744,-0.0696,-0.0626,-0.0575,-0.048,-0.0409,-0.0228,-0.014,-0.0058,0.0044,0.0111,0.019,0.0154,0.016,0.0172,0.0334,0.0302,0.0313,0.0229,0.0232,0.0234,0.0326,0,-0.0865,-0.0892,-0.0859,-0.0866,-0.0871,-0.0796,-0.0754,-0.0676,-0.059,-0.0506,-0.0355,-0.0247,-0.0138,-0.0071,0.003,0.0155,0.0226,0.0161,0.0329,0.0333,0.029,0.0329,0.0308,0.0387,0.0339,0.0341,0.0343,0,-0.0904,-0.0918,-0.0949,-0.0921,-0.0911,-0.0902,-0.0826,-0.0774,-0.0626,-0.0546,-0.0397,-0.0283,-0.0114,-0.0067,0.0181,0.0135,0.0246,0.0314,0.032,0.0328,0.0327,0.037,0.0413,0.0365,0.0363,0.0362,0.036,0,-0.0977,-0.0971,-0.1011,-0.0998,-0.0958,-0.0943,-0.0913,-0.0789,-0.0725,-0.0576,-0.0512,-0.0298,-0.0191,-0.0019,0.0178,0.0191,0.038,0.0417,0.0484,0.0481,0.0518,0.0514,0.0569,0.0569,0.0569,0.0568,0.0568,0,-0.1023,-0.1042,-0.1049,-0.106,-0.1075,-0.1018,-0.0983,-0.0906,-0.0788,-0.0702,-0.0525,-0.0422,-0.0172,-0.002,0.0149,0.0355,0.0383,0.0494,0.0517,0.049,0.0482,0.0514,0.0507,0.0572,0.0571,0.057,0.057,0,-0.1084,-0.1091,-0.113,-0.1119,-0.1114,-0.1126,-0.1059,-0.1007,-0.0889,-0.0784,-0.0742,-0.0504,-0.0288,-0.0082,0.0171,0.0316,0.0487,0.0541,0.0464,0.0478,0.0542,0.053,0.0655,0.0655,0.0655,0.0655,0.0655,0,-0.1119,-0.1152,-0.1189,-0.1209,-0.1205,-0.1202,-0.1174,-0.1072,-0.1004,-0.0819,-0.0767,-0.0563,-0.0369,-0.0043,0.0206,0.0456,0.0479,0.0561,0.0601,0.0548,0.0558,0.0546,0.0535,0.0617,0.0616,0.0616,0.0616,0,-0.1165,-0.1188,-0.1215,-0.127,-0.1277,-0.1266,-0.1221,-0.1189,-0.1041,-0.0944,-0.0773,-0.0636,-0.0308,-0.0019,0.0264,0.0412,0.0521,0.0563,0.0563,0.0579,0.0516,0.0523,0.0513,0.0613,0.0614,0.0614,0.0614,0.0614,-0.1188,-0.1225,-0.1264,-0.1304,-0.1313,-0.1288,-0.1262,-0.119,-0.1095,-0.0907,-0.0797,-0.0559,-0.0301,0.0137,0.0341,0.0529,0.0545,0.062,0.062,0.0621,0.0582,0.052,0.0609,0.061,0.061,0.061,0.061,0,-0.1192,-0.1231,-0.1279,-0.1309,-0.1302,-0.1307,-0.1245,-0.1185,-0.1072,-0.0899,-0.073,-0.0431,-0.0124,0.0132,0.0439,0.0614,0.0626,0.0634,0.0631,0.0632,0.0633,0.0594,0.0626,0.0626,0.0627,0.0627,0,0,-0.1198,-0.1234,-0.1258,-0.126,-0.1277,-0.1241,-0.1202,-0.1119,-0.0987,-0.0804,-0.0629,-0.0404,-0.0099,0.0124,0.0342,0.0499,0.0521,0.0508,0.0476,0.0447,0.0447,0.0602,0.054,0,0,0,0,0]}],[{"header":{"parameterUnit":"m.s-1","parameterCategory":2,"la1":30.2991,"la2":30.254,"lo1":-89.0895,"lo2":-89.0444,"dy":0.0017,"dx":0.0017,"nx":28,"ny":28,"refTime":"2024-02-03T03:00:00:Z","depth":"4","parameterNumber":2,"parameterNumberName":"U-component_of_CURRENTS"},"data":[0,0,0,0,0,0,0,0,0,0,0,0,0,0,0,0,0,0,0,0,0,0,0,0,0,0,0,0,0,0,0,0,0,0,0,0,0,0,0,0,0,0,0,0,0,0,0,0,0,0,0,0,0,0,0,0,0,0,-0.1668,-0.1668,0,-0.1676,-0.1676,-0.1676,-0.1689,-0.169,-0.169,-0.169,-0.1748,-0.1749,-0.1751,0,0,0,0,0,0,0,0,0,0,0,0,0,-0.166,-0.1661,-0.1668,-0.1668,-0.1668,-0.1676,-0.1676,-0.1676,-0.1689,-0.169,-0.169,-0.169,-0.1748,-0.1749,-0.1751,0,0,0,0,0,0,0,0,0,0,0,0,0,-0.1665,-0.1661,-0.1668,-0.1676,-0.1677,-0.1676,-0.1676,-0.1676,-0.1689,-0.169,-0.169,-0.1691,-0.1747,-0.1749,-0.1751,-0.1754,0,0,-0.1757,-0.1758,0,0,0,0,0,0,0,0,-0.1665,-0.1665,-0.1675,-0.1676,-0.1677,-0.1683,-0.1695,-0.1705,-0.1689,-0.1684,-0.169,-0.1691,-0.1731,-0.1734,-0.1733,-0.1756,-0.1759,-0.1757,-0.1758,-0.1759,-0.1759,0,0,0,0,0,0,0,-0.1664,-0.1665,-0.1671,-0.1675,-0.1676,-0.1678,-0.1679,-0.1696,-0.1705,-0.1685,-0.1686,-0.1687,-0.1732,-0.1731,-0.1735,-0.176,-0.1757,-0.1758,-0.176,-0.176,-0.1803,-0.1803,0,0,0,0,0,0,-0.1664,-0.1665,-0.167,-0.1671,-0.1672,-0.1678,-0.1679,-0.168,-0.1704,-0.1708,-0.1687,-0.1688,-0.1728,-0.1732,-0.1737,-0.177,-0.1759,-0.1761,-0.1762,-0.1803,-0.1803,-0.1803,0,0,0,0,0,0,-0.1664,-0.1665,-0.167,-0.1669,-0.1669,-0.1678,-0.1678,-0.168,-0.1711,-0.1705,-0.171,-0.172,-0.1728,-0.1734,-0.1772,-0.1772,-0.1761,-0.1763,-0.1803,-0.1803,-0.1803,-0.1819,0,0,0,0,0,0,-0.1664,-0.1664,-0.1678,-0.1668,-0.167,-0.1675,-0.1678,-0.168,-0.1709,-0.1712,-0.1735,-0.1739,-0.1729,-0.1769,-0.1774,-0.1774,-0.1765,-0.1803,-0.1803,-0.1803,-0.1818,-0.1819,-0.182,0,0,0,0,0,-0.1663,-0.1666,-0.1678,-0.168,-0.1683,-0.1675,-0.1676,-0.1683,-0.1711,-0.1716,-0.1742,-0.174,-0.1771,-0.1772,-0.1777,-0.1777,-0.1803,-0.1803,-0.1803,-0.1818,-0.1819,-0.182,0,0,0,0,0,0,-0.1661,-0.1668,-0.1681,-0.1685,-0.1687,-0.1677,-0.169,-0.1705,-0.1731,-0.1748,-0.1755,-0.176,-0.1785,-0.1785,-0.1785,-0.1787,-0.1781,-0.1782,-0.179,-0.1791,-0.1792,-0.1781,-0.1766,0,0,0,0,0,-0.1669,-0.1673,-0.1681,-0.168,-0.1694,-0.1706,-0.1713,-0.1718,-0.1732,-0.1745,-0.1764,-0.1779,-0.1782,-0.1795,-0.1796,-0.1815,-0.1818,-0.1813,-0.1814,-0.1815,-0.1808,-0.1855,-0.186,-0.1803,-0.1803,-0.1803,0,0,-0.1663,-0.1669,-0.167,-0.1681,-0.1692,-0.1701,-0.1712,-0.1726,-0.1738,-0.1749,-0.1788,-0.1792,-0.1789,-0.1795,-0.1806,-0.1802,-0.1823,-0.1815,-0.1815,-0.1808,-0.1856,-0.1861,-0.1867,-0.1803,-0.1803,-0.1803,0,0,-0.1639,-0.167,-0.1669,-0.168,-0.1701,-0.1711,-0.1727,-0.1745,-0.1765,-0.1799,-0.1798,-0.1815,-0.1837,-0.1821,-0.1819,-0.1834,-0.1829,-0.1825,-0.1824,-0.187,-0.1876,-0.1881,-0.1855,-0.1858,-0.1825,-0.1825,-0.1825,0,-0.1633,-0.1642,-0.1664,-0.1671,-0.1693,-0.1724,-0.174,-0.1754,-0.1778,-0.1792,-0.1817,-0.1839,-0.1847,-0.1838,-0.1828,-0.1838,-0.1838,-0.1822,-0.1874,-0.1879,-0.1884,-0.1856,-0.1859,-0.1826,-0.1825,-0.1825,-0.1825,0,-0.1604,-0.1631,-0.1636,-0.1663,-0.1686,-0.1702,-0.1735,-0.1758,-0.1806,-0.1815,-0.1844,-0.1858,-0.1876,-0.1862,-0.1851,-0.1865,-0.1842,-0.1873,-0.1874,-0.1891,-0.186,-0.1862,-0.1827,-0.1826,-0.1826,-0.1826,0,0,-0.1534,-0.1605,-0.1609,-0.164,-0.1696,-0.1703,-0.1739,-0.1767,-0.1796,-0.1823,-0.1861,-0.1855,-0.1879,-0.1877,-0.1869,-0.1881,-0.1904,-0.1884,-0.1886,-0.1861,-0.1954,-0.1836,-0.1827,-0.1954,-0.1956,-0.1957,-0.1905,0,-0.1512,-0.1533,-0.1583,-0.162,-0.1647,-0.1705,-0.1737,-0.1764,-0.1811,-0.1849,-0.1862,-0.1904,-0.1883,-0.1912,-0.192,-0.1915,-0.1917,-0.1911,-0.1937,-0.1936,-0.1835,-0.1829,-0.1962,-0.1907,-0.1908,-0.1908,-0.1909,0,-0.147,-0.1497,-0.1542,-0.1625,-0.1646,-0.1679,-0.1752,-0.1784,-0.1831,-0.1872,-0.1906,-0.1941,-0.1948,-0.1966,-0.1961,-0.196,-0.1958,-0.1944,-0.1944,-0.1831,-0.1824,-0.1896,-0.1914,-0.1913,-0.1913,-0.1913,-0.1912,0,-0.1399,-0.147,-0.1518,-0.1543,-0.1634,-0.1675,-0.1725,-0.1785,-0.181,-0.1903,-0.1921,-0.1973,-0.1995,-0.2021,-0.2006,-0.2003,-0.1994,-0.2007,-0.1881,-0.1871,-0.1989,-0.1985,-0.2024,-0.2024,-0.2024,-0.2024,-0.2025,0,-0.135,-0.1383,-0.1498,-0.1512,-0.1569,-0.1656,-0.1713,-0.1764,-0.1834,-0.1851,-0.1939,-0.1951,-0.2016,-0.2021,-0.2021,-0.1938,-0.2027,-0.1861,-0.1858,-0.1988,-0.1985,-0.1988,-0.1984,-0.2022,-0.2023,-0.2023,-0.2024,0,-0.1269,-0.134,-0.1392,-0.1501,-0.1539,-0.1581,-0.1679,-0.1695,-0.1787,-0.1816,-0.1851,-0.1922,-0.1938,-0.1961,-0.1991,-0.1923,-0.1901,-0.1861,-0.1951,-0.1958,-0.1728,-0.1726,-0.1691,-0.1687,-0.1683,-0.168,-0.1678,0,-0.123,-0.1257,-0.1366,-0.1379,-0.1439,-0.1513,-0.1541,-0.1656,-0.1674,-0.1777,-0.1765,-0.1824,-0.1862,-0.1771,-0.1839,-0.1818,-0.1807,-0.1764,-0.1765,-0.1697,-0.1699,-0.1703,-0.1705,-0.1672,-0.1671,-0.167,-0.1669,0,-0.1164,-0.1222,-0.1253,-0.1282,-0.1324,-0.1364,-0.1427,-0.1434,-0.1561,-0.1633,-0.1655,-0.1679,-0.1669,-0.1696,-0.1686,-0.1683,-0.178,-0.1724,-0.1731,-0.1732,-0.1673,-0.1679,-0.1686,-0.1656,-0.1658,-0.1659,-0.1659,0,-0.1113,-0.1115,-0.1157,-0.1169,-0.121,-0.1222,-0.1273,-0.131,-0.1358,-0.1491,-0.1503,-0.158,-0.1665,-0.1624,-0.1632,-0.1604,-0.1573,-0.1519,-0.1536,-0.1551,-0.1532,-0.1437,-0.133,0,0,0,0,0,-0.1053,-0.1028,-0.1031,-0.1042,-0.1075,-0.1108,-0.119,-0.1249,-0.1379,-0.1351,-0.1432,-0.1448,-0.1456,-0.1501,-0.144,-0.1545,-0.1568,-0.1465,-0.1513,-0.1584,-0.1599,-0.159,0,0,0,0,0,0,-0.0995,-0.1,-0.0992,-0.094,-0.0927,-0.0964,-0.1024,-0.111,-0.1116,-0.125,-0.1264,-0.1346,-0.1374,-0.1469,-0.1407,-0.1414,-0.1412,-0.1515,-0.1511,-0.1575,-0.1589,-0.1601,-0.1598,0,0,0,0,0]},{"header":{"parameterUnit":"m.s-1","parameterCategory":2,"la1":30.2991,"la2":30.254,"lo1":-89.0895,"lo2":-89.0444,"dy":0.0017,"dx":0.0017,"nx":28,"ny":28,"refTime":"2024-02-03T03:00:00:Z","depth":"4","parameterNumber":3,"parameterNumberName":"V-component_of_CURRENTS"},"data":[0,0,0,0,0,0,0,0,0,0,0,0,0,0,0,0,0,0,0,0,0,0,0,0,0,0,0,0,0,0,0,0,0,0,0,0,0,0,0,0,0,0,0,0,0,0,0,0,0,0,0,0,0,0,0,0,0,0,-0.0499,-0.0499,0,-0.0477,-0.0477,-0.0476,-0.043,-0.0429,-0.0428,-0.0428,-0.0354,-0.0353,-0.0352,0,0,0,0,0,0,0,0,0,0,0,0,0,-0.0466,-0.0467,-0.0499,-0.0499,-0.0499,-0.0477,-0.0477,-0.0476,-0.043,-0.0429,-0.0428,-0.0427,-0.0355,-0.0353,-0.0352,0,0,0,0,0,0,0,0,0,0,0,0,0,-0.0464,-0.0467,-0.0499,-0.0475,-0.0473,-0.0477,-0.0477,-0.0476,-0.043,-0.0429,-0.0428,-0.0427,-0.0355,-0.0353,-0.0352,-0.036,0,0,-0.0346,-0.0345,0,0,0,0,0,0,0,0,-0.0464,-0.0464,-0.0479,-0.0477,-0.0474,-0.0457,-0.0438,-0.0436,-0.043,-0.0443,-0.0428,-0.0426,-0.0387,-0.0382,-0.0377,-0.0357,-0.0354,-0.0345,-0.0344,-0.0343,-0.0343,0,0,0,0,0,0,0,-0.0464,-0.0465,-0.0487,-0.0479,-0.0476,-0.0454,-0.0453,-0.0438,-0.0418,-0.0442,-0.0439,-0.0442,-0.0385,-0.0379,-0.0375,-0.0353,-0.0345,-0.0344,-0.0343,-0.0342,-0.0382,-0.0384,0,0,0,0,0,0,-0.0475,-0.0466,-0.0488,-0.0487,-0.0469,-0.0456,-0.0454,-0.0462,-0.0419,-0.0413,-0.0443,-0.044,-0.0383,-0.0377,-0.0372,-0.0426,-0.0343,-0.0342,-0.034,-0.0379,-0.0382,-0.0384,0,0,0,0,0,0,-0.0475,-0.0478,-0.0489,-0.0477,-0.0478,-0.0458,-0.0467,-0.0462,-0.0462,-0.0421,-0.0412,-0.0449,-0.0382,-0.0375,-0.0378,-0.0421,-0.0341,-0.0339,-0.0377,-0.038,-0.0383,-0.0504,0,0,0,0,0,0,-0.0474,-0.0478,-0.0494,-0.0479,-0.0479,-0.0506,-0.0468,-0.0462,-0.0466,-0.0462,-0.0423,-0.0415,-0.0381,-0.0382,-0.0376,-0.0417,-0.0337,-0.0374,-0.0378,-0.0382,-0.0498,-0.0511,-0.0523,0,0,0,0,0,-0.0473,-0.0502,-0.0495,-0.0498,-0.05,-0.0508,-0.0507,-0.0486,-0.0468,-0.048,-0.0457,-0.0416,-0.0404,-0.0382,-0.0375,-0.0416,-0.0372,-0.0377,-0.0382,-0.0492,-0.0509,-0.0523,0,0,0,0,0,0,-0.0499,-0.05,-0.0492,-0.052,-0.0521,-0.0501,-0.0513,-0.0498,-0.049,-0.0486,-0.0439,-0.0431,-0.045,-0.042,-0.0396,-0.0442,-0.0384,-0.0388,-0.047,-0.0485,-0.0498,-0.049,-0.0336,0,0,0,0,0,-0.0514,-0.0534,-0.0528,-0.0553,-0.0554,-0.0536,-0.0538,-0.0527,-0.0516,-0.0511,-0.0486,-0.0468,-0.0467,-0.0464,-0.0451,-0.0474,-0.0396,-0.0499,-0.0512,-0.0523,-0.0514,-0.0432,-0.0436,-0.0401,-0.0401,-0.0401,0,0,-0.0532,-0.0536,-0.0548,-0.056,-0.0554,-0.0574,-0.0534,-0.0548,-0.057,-0.0505,-0.0527,-0.0508,-0.0483,-0.051,-0.0517,-0.0489,-0.0495,-0.0529,-0.0539,-0.0523,-0.0438,-0.044,-0.0443,-0.0404,-0.0404,-0.0403,0,0,-0.0572,-0.058,-0.0604,-0.061,-0.0615,-0.0613,-0.0622,-0.0614,-0.0614,-0.0637,-0.0602,-0.0606,-0.0602,-0.0593,-0.0588,-0.0664,-0.0563,-0.0672,-0.0732,-0.0655,-0.0656,-0.0656,-0.0566,-0.0557,-0.0682,-0.0682,-0.0682,0,-0.0591,-0.062,-0.0614,-0.0635,-0.0646,-0.0635,-0.0661,-0.0673,-0.067,-0.0672,-0.0661,-0.065,-0.0641,-0.0658,-0.0702,-0.0691,-0.062,-0.0676,-0.0668,-0.0666,-0.0664,-0.0572,-0.056,-0.0688,-0.0687,-0.0687,-0.0686,0,-0.0641,-0.0666,-0.0682,-0.0708,-0.0722,-0.0747,-0.0757,-0.0776,-0.0779,-0.0778,-0.0791,-0.0771,-0.0755,-0.0776,-0.0771,-0.0772,-0.0717,-0.0689,-0.0622,-0.0674,-0.0575,-0.0561,-0.0697,-0.0695,-0.0693,-0.0692,0,0,-0.0668,-0.0709,-0.0713,-0.0731,-0.076,-0.0775,-0.0823,-0.0849,-0.086,-0.0874,-0.087,-0.0909,-0.0878,-0.0871,-0.0853,-0.0814,-0.0766,-0.0764,-0.0757,-0.0664,-0.0574,-0.0525,-0.0503,-0.0728,-0.0726,-0.0725,-0.0512,0,-0.0703,-0.0757,-0.0768,-0.0823,-0.0848,-0.0857,-0.0891,-0.0915,-0.0925,-0.0923,-0.0913,-0.0902,-0.092,-0.0903,-0.0879,-0.0775,-0.0732,-0.0824,-0.0547,-0.0538,-0.0478,-0.0487,-0.0719,-0.0501,-0.0497,-0.0495,-0.0493,0,-0.0739,-0.0769,-0.0829,-0.0864,-0.0873,-0.0912,-0.0943,-0.097,-0.0976,-0.0967,-0.0961,-0.093,-0.0899,-0.0891,-0.0744,-0.0796,-0.0709,-0.0631,-0.0619,-0.0515,-0.0462,-0.0437,-0.0465,-0.0468,-0.047,-0.0471,-0.0473,0,-0.0753,-0.0807,-0.0858,-0.0875,-0.092,-0.0948,-0.0972,-0.099,-0.0992,-0.0981,-0.095,-0.0912,-0.0851,-0.0754,-0.063,-0.0673,-0.0425,-0.0447,-0.0318,-0.0311,-0.0363,-0.0365,-0.0336,-0.0336,-0.0337,-0.0337,-0.0338,0,-0.0782,-0.0818,-0.0873,-0.0903,-0.0947,-0.0966,-0.0999,-0.1011,-0.0997,-0.0978,-0.0967,-0.0907,-0.0811,-0.0676,-0.0588,-0.0387,-0.0378,-0.0312,-0.0252,-0.0422,-0.0434,-0.0352,-0.0356,-0.0329,-0.0331,-0.0333,-0.0334,0,-0.0786,-0.0828,-0.0885,-0.0943,-0.0961,-0.0994,-0.1016,-0.102,-0.1003,-0.0965,-0.0949,-0.0863,-0.0686,-0.0562,-0.0356,-0.03,-0.0128,-0.0063,-0.0223,-0.0178,-0.0083,-0.0097,0.0097,0.01,0.0103,0.0106,0.0108,0,-0.0789,-0.0826,-0.091,-0.0938,-0.0971,-0.1012,-0.1025,-0.103,-0.1015,-0.0926,-0.0888,-0.0728,-0.0659,-0.0308,-0.0208,0.0015,0.0014,0.0107,-0.0047,-0.0076,-0.0037,-0.0056,-0.0073,0.0113,0.0114,0.0114,0.0115,0,-0.0789,-0.0834,-0.0877,-0.094,-0.098,-0.1003,-0.102,-0.0998,-0.0969,-0.0952,-0.0791,-0.0651,-0.0441,-0.0264,-0.007,0.0064,0.0044,0.0137,0.0129,-0.0015,-0.0055,-0.0023,-0.0044,0.0126,0.0124,0.0123,0.0123,0,-0.0781,-0.081,-0.0875,-0.0921,-0.0967,-0.0973,-0.099,-0.0936,-0.0908,-0.0813,-0.0749,-0.0563,-0.0465,-0.0231,-0.0057,0.0092,0.0078,0.0081,0.0075,0.0065,-0.0038,-0.0099,0.0137,0,0,0,0,0,-0.0761,-0.0791,-0.084,-0.0895,-0.0938,-0.0964,-0.0964,-0.0965,-0.0932,-0.0809,-0.0776,-0.0585,-0.0326,-0.022,-0.0059,-0.0045,0.0083,0.0144,0.0077,0.0183,0.0171,0.0056,0,0,0,0,0,0,-0.0754,-0.0801,-0.0828,-0.0855,-0.0883,-0.092,-0.0922,-0.0905,-0.0828,-0.0778,-0.0632,-0.0565,-0.0312,-0.0413,-0.0061,-0.0019,-0.0044,0.0259,0.0262,0.019,0.0179,0.017,0.0047,0,0,0,0,0]}]]